| time (UTC) | temp C | wind direction | speed KPH | gust KPH | rain 1hr cm | rain 24hr cm | rain mn cm | humidity % | barometer mb |
| 20260831100035 | 12 | 290 | 0.0 | 0.0 | 0.00 | 0.03 | 0.03 | 75 | 1029.8 |
| 20260831094540 | 12 | 283 | 0.0 | 0.0 | 0.00 | 0.03 | 0.03 | 74 | 1029.8 |
| 20260831093034 | 12 | 303 | 0.0 | 0.0 | 0.00 | 0.03 | 0.03 | 73 | 1029.7 |
| 20260831091533 | 13 | 299 | 0.0 | 0.0 | 0.00 | 0.03 | 0.03 | 72 | 1029.8 |
| 20260831090032 | 13 | 258 | 0.0 | 0.0 | 0.00 | 0.03 | 0.03 | 73 | 1029.7 |
| 20260831084540 | 13 | 296 | 0.0 | 0.0 | 0.00 | 0.03 | 0.03 | 73 | 1029.6 |
| 20260831083033 | 13 | 287 | 0.0 | 0.0 | 0.00 | 0.03 | 0.03 | 73 | 1029.6 |
| 20260831081531 | 14 | 298 | 0.0 | 0.0 | 0.00 | 0.03 | 0.03 | 73 | 1029.5 |
| 20260831080030 | 14 | 301 | 0.0 | 0.0 | 0.00 | 0.03 | 0.03 | 71 | 1029.4 |
| 20260831074539 | 15 | 310 | 0.0 | 0.0 | 0.00 | 0.03 | 0.03 | 68 | 1029.4 |
| 20260831073059 | 16 | 274 | 0.0 | 0.0 | 0.00 | 0.03 | 0.03 | 66 | 1029.3 |
| 20260831071628 | 17 | 289 | 0.0 | 0.0 | 0.00 | 0.03 | 0.03 | 63 | 1029.3 |
| 20260831070032 | 18 | 308 | 0.0 | 1.6 | 0.00 | 0.03 | 0.03 | 60 | 1029.3 |
| 20260831064536 | 18 | 256 | 0.0 | 0.0 | 0.00 | 0.03 | 0.03 | 58 | 1029.4 |
| 20260831063026 | 18 | 270 | 0.0 | 0.0 | 0.00 | 0.03 | 0.03 | 57 | 1029.5 |
| 20260831061536 | 18 | 275 | 0.0 | 4.8 | 0.00 | 0.03 | 0.03 | 53 | 1029.4 |
| 20260831060025 | 18 | 235 | 0.0 | 1.6 | 0.00 | 0.03 | 0.03 | 49 | 1029.4 |
| 20260831054525 | 18 | 265 | 0.0 | 1.6 | 0.00 | 0.03 | 0.03 | 47 | 1029.4 |
| 20260831053024 | 19 | 261 | 0.0 | 0.0 | 0.00 | 0.03 | 0.03 | 47 | 1029.6 |
| 20260831051524 | 19 | 296 | 0.0 | 1.6 | 0.00 | 0.03 | 0.03 | 49 | 1029.7 |
| 20260831050036 | 19 | 272 | 0.0 | 1.6 | 0.00 | 0.03 | 0.03 | 52 | 1029.8 |
| 20260831044520 | 18 | 279 | 0.0 | 0.0 | 0.00 | 0.03 | 0.03 | 51 | 1029.8 |
| 20260831043018 | 18 | 235 | 0.0 | 3.2 | 0.00 | 0.03 | 0.03 | 49 | 1029.9 |
| 20260831041517 | 18 | 330 | 0.0 | 12.9 | 0.00 | 0.03 | 0.03 | 47 | 1029.9 |
| 20260831040038 | 19 | 228 | 0.0 | 0.0 | 0.00 | 0.03 | 0.03 | 45 | 1030.0 |
| 20260831034513 | 19 | 290 | 0.0 | 0.0 | 0.00 | 0.03 | 0.03 | 46 | 1030.1 |
| 20260831033017 | 19 | 281 | 0.0 | 0.0 | 0.00 | 0.03 | 0.03 | 48 | 1030.3 |
| 20260831031507 | 18 | 241 | 1.6 | 12.9 | 0.00 | 0.03 | 0.03 | 50 | 1030.5 |
| 20260831030015 | 18 | 320 | 0.0 | 11.3 | 0.00 | 0.03 | 0.03 | 52 | 1030.7 |
| 20260831024503 | 18 | 317 | 0.0 | 0.0 | 0.00 | 0.03 | 0.03 | 51 | 1030.9 |
| 20260831023100 | 18 | 264 | 0.0 | 0.0 | 0.00 | 0.03 | 0.03 | 52 | 1031.2 |
| 20260831021559 | 18 | 239 | 0.0 | 0.0 | 0.00 | 0.03 | 0.03 | 54 | 1031.4 |
| 20260831020054 | 17 | 292 | 0.0 | 0.0 | 0.00 | 0.03 | 0.03 | 59 | 1031.6 |
| 20260831014553 | 17 | 238 | 0.0 | 0.0 | 0.00 | 0.03 | 0.03 | 56 | 1031.8 |
| 20260831013050 | 17 | 206 | 0.0 | 0.0 | 0.00 | 0.03 | 0.03 | 57 | 1032.0 |
| 20260831011547 | 16 | 253 | 0.0 | 0.0 | 0.00 | 0.03 | 0.03 | 57 | 1032.3 |
| 20260831004545 | 16 | 105 | 0.0 | 0.0 | 0.00 | 0.03 | 0.03 | 57 | 1032.7 |
| 20260831003038 | 15 | 112 | 0.0 | 0.0 | 0.00 | 0.03 | 0.03 | 62 | 1032.8 |
| 20260831001535 | 14 | 100 | 0.0 | 0.0 | 0.00 | 0.03 | 0.03 | 65 | 1033.0 |
| 20260831000033 | 13 | 81 | 0.0 | 0.0 | 0.00 | 0.03 | 0.03 | 67 | 1033.1 |
| 20260830234527 | 12 | 117 | 0.0 | 0.0 | 0.00 | 0.03 | 0.03 | 68 | 1033.3 |
| 20260830233032 | 11 | 117 | 0.0 | 0.0 | 0.00 | 0.03 | 0.03 | 71 | 1033.4 |
| 20260830231519 | 10 | 117 | 0.0 | 0.0 | 0.00 | 0.03 | 0.03 | 76 | 1033.5 |
| 20260830230022 | 10 | 117 | 0.0 | 0.0 | 0.00 | 0.03 | 0.03 | 81 | 1033.5 |
| 20260830224511 | 8 | 117 | 0.0 | 0.0 | 0.00 | 0.03 | 0.03 | 84 | 1033.5 |
| 20260830223012 | 8 | 259 | 0.0 | 0.0 | 0.00 | 0.03 | 0.03 | 86 | 1033.5 |
| 20260830221505 | 7 | 259 | 0.0 | 0.0 | 0.00 | 0.03 | 0.03 | 90 | 1033.5 |
| 20260830220105 | 7 | 259 | 0.0 | 0.0 | 0.00 | 0.03 | 0.03 | 91 | 1033.4 |
| 20260830214603 | 6 | 259 | 0.0 | 0.0 | 0.00 | 0.05 | 0.03 | 91 | 1033.4 |
| 20260830213059 | 5 | 259 | 0.0 | 0.0 | 0.00 | 0.05 | 0.03 | 91 | 1033.3 |
| 20260830211557 | 4 | 259 | 0.0 | 0.0 | 0.00 | 0.05 | 0.03 | 91 | 1033.1 |
| 20260830210054 | 4 | 259 | 0.0 | 0.0 | 0.00 | 0.05 | 0.03 | 91 | 1032.9 |
| 20260830204559 | 3 | 259 | 0.0 | 0.0 | 0.03 | 0.05 | 0.03 | 91 | 1032.7 |
| 20260830203051 | 3 | 258 | 0.0 | 0.0 | 0.03 | 0.05 | 0.03 | 91 | 1032.7 |
| 20260830201558 | 3 | 259 | 0.0 | 0.0 | 0.03 | 0.05 | 0.03 | 91 | 1032.5 |
| 20260830200052 | 3 | 259 | 0.0 | 0.0 | 0.03 | 0.05 | 0.03 | 92 | 1032.4 |
| 20260830194550 | 3 | 259 | 0.0 | 0.0 | 0.00 | 0.03 | 0.00 | 92 | 1032.3 |
| 20260830193046 | 3 | 259 | 0.0 | 0.0 | 0.00 | 0.03 | 0.00 | 92 | 1032.2 |
| 20260830191616 | 4 | 259 | 0.0 | 0.0 | 0.00 | 0.03 | 0.00 | 92 | 1032.1 |
| 20260830190054 | 5 | 259 | 0.0 | 0.0 | 0.00 | 0.03 | 0.00 | 91 | 1031.9 |
| 20260830184541 | 5 | 259 | 0.0 | 0.0 | 0.00 | 0.03 | 0.00 | 91 | 1031.9 |
| 20260830183040 | 4 | 259 | 0.0 | 0.0 | 0.00 | 0.03 | 0.00 | 91 | 1031.9 |
| 20260830181542 | 4 | 259 | 0.0 | 0.0 | 0.00 | 0.03 | 0.00 | 92 | 1031.8 |
| 20260830180039 | 4 | 258 | 0.0 | 0.0 | 0.00 | 0.03 | 0.00 | 92 | 1031.6 |
| 20260830174636 | 5 | 258 | 0.0 | 0.0 | 0.00 | 0.03 | 0.00 | 92 | 1031.6 |
| 20260830173033 | 5 | 259 | 0.0 | 0.0 | 0.00 | 0.03 | 0.00 | 92 | 1031.5 |
| 20260830171532 | 5 | 259 | 0.0 | 0.0 | 0.00 | 0.03 | 0.00 | 92 | 1031.5 |
| 20260830170030 | 5 | 259 | 0.0 | 0.0 | 0.00 | 0.03 | 0.00 | 92 | 1031.7 |
| 20260830164528 | 5 | 259 | 0.0 | 0.0 | 0.00 | 0.03 | 0.00 | 92 | 1031.8 |
| 20260830163036 | 6 | 259 | 0.0 | 0.0 | 0.00 | 0.03 | 0.00 | 92 | 1031.8 |
| 20260830161523 | 6 | 258 | 0.0 | 0.0 | 0.00 | 0.03 | 0.00 | 92 | 1032.0 |
| 20260830160033 | 6 | 259 | 0.0 | 0.0 | 0.00 | 0.03 | 0.00 | 92 | 1032.1 |
| 20260830154524 | 6 | 20 | 0.0 | 0.0 | 0.00 | 0.03 | 0.00 | 92 | 1032.0 |
| 20260830153018 | 6 | 20 | 0.0 | 0.0 | 0.00 | 0.03 | 0.00 | 92 | 1031.9 |
| 20260830151516 | 6 | 20 | 0.0 | 0.0 | 0.00 | 0.03 | 0.00 | 92 | 1032.1 |
| 20260830150020 | 6 | 217 | 0.0 | 0.0 | 0.00 | 0.03 | 0.00 | 92 | 1032.2 |
| 20260830144521 | 6 | 31 | 0.0 | 0.0 | 0.00 | 0.03 | 0.00 | 92 | 1032.5 |
| 20260830143011 | 6 | 31 | 0.0 | 0.0 | 0.00 | 0.03 | 0.00 | 92 | 1032.4 |
| 20260830141515 | 6 | 31 | 0.0 | 0.0 | 0.00 | 0.03 | 0.00 | 91 | 1032.4 |
| 20260830140007 | 6 | 31 | 0.0 | 0.0 | 0.00 | 0.03 | 0.03 | 92 | 1032.5 |
| 20260830134506 | 6 | 31 | 0.0 | 0.0 | 0.00 | 0.03 | 0.03 | 92 | 1032.4 |
| 20260830133005 | 6 | 31 | 0.0 | 0.0 | 0.00 | 0.03 | 0.03 | 92 | 1032.6 |
| 20260830131505 | 6 | 31 | 0.0 | 0.0 | 0.00 | 0.03 | 0.03 | 92 | 1032.6 |
| 20260830130005 | 7 | 31 | 0.0 | 0.0 | 0.00 | 0.03 | 0.03 | 91 | 1032.4 |
| 20260830124506 | 7 | 31 | 0.0 | 0.0 | 0.00 | 0.03 | 0.03 | 91 | 1032.4 |
| 20260830123009 | 7 | 31 | 0.0 | 0.0 | 0.00 | 0.03 | 0.03 | 91 | 1032.5 |
| 20260830121506 | 7 | 31 | 0.0 | 0.0 | 0.00 | 0.03 | 0.03 | 90 | 1032.4 |
| 20260830120003 | 7 | 31 | 0.0 | 0.0 | 0.00 | 0.03 | 0.03 | 91 | 1032.3 |
| 20260830114503 | 7 | 31 | 0.0 | 0.0 | 0.00 | 0.03 | 0.03 | 89 | 1032.2 |
| 20260830111502 | 8 | 31 | 0.0 | 0.0 | 0.00 | 0.03 | 0.03 | 87 | 1031.9 |
| 20260830110002 | 9 | 31 | 0.0 | 0.0 | 0.00 | 0.03 | 0.03 | 85 | 1031.7 |
| 20260830104501 | 10 | 31 | 0.0 | 0.0 | 0.00 | 0.03 | 0.03 | 84 | 1031.5 |
| 20260830103002 | 10 | 31 | 0.0 | 0.0 | 0.00 | 0.03 | 0.03 | 82 | 1031.4 |
| 20260830101615 | 11 | 31 | 0.0 | 0.0 | 0.00 | 0.03 | 0.03 | 79 | 1031.4 |